User: anonymous   Login
Location: Vale
(35.4830°N, 81.3830°W)
Time: 13:28:03
(UTC-05:00)
Language:

Cosmos 2237 Rocket - Orbit

View from above orbital plane
View from above orbital plane
View from above satellite
View from above satellite

Ground track
Ground track

The orbit data is extracted from the following two-line orbital elements,

1 22566U 93016B   17328.26011889 -.00000150 +00000-0 -52636-4 0  9990
2 22566 071.0070 090.9189 0012569 253.3217 106.6527 14.14950109273902
Epoch (UTC): 24 November 2017 06:14:34
Eccentricity: 0.0012569
inclination: 71.0070°
perigee height: 833 km
apogee height: 851 km
right ascension of ascending node: 90.9189°
argument of perigee: 253.3217°
revolutions per day: 14.14950109
mean anomaly at epoch: 106.6527°
orbit number at epoch: 27390

The dashed part of the orbit path shows where the satellite is in the earth's shadow,  

DLR